CZ-6A DEB, 61124

Orbit data source: Space-Track

CZ-6A DEB, 61124 is space debris in LEO originally from a launch on Tue, 06 Aug 2024 UTC launched from the Taiyaun Space Center, China (TSC). Debris objects in space refer to the collection of defunct objects orbiting the Earth. Examples of debris include non-operational satellites, rocket bodies, and fragments generated from explosions, collisions, or faulty payload assembly.

Loading next visibility...
Identifier
61124, 2024-140PS
Orbit
LEO
Country
Flag of CNCN / PRC
Related business
Manufacturer
SAST
Mission
Spacecraft
Bus & Motor
Unknown
Mass
Unknown
Launch date (UTC)
2024-08-06 (1 year ago)
Launch vehicle
Unknown
Launch site
Taiyaun Space Center, China (TSC)
Object type
Payload
Rocket body
Debris
Shape & HBR
Unknown shape, 0.1 m
Radar Cross Section
Small (<0.1 m²)

Expand to show TLE details & history
Last TLE update: 9 hours ago

TLE from 9 hours ago
0 CZ-6A DEB
1 61124U 24140PS  25355.10169042  .00001670  00000-0  19563-3 0  9999
2 61124  89.0007 289.7774 0179471  99.8264 262.3271 14.73427305 71525
Epoch: 2025-12-21T02:26Z
TLE epoch observation values (Epoch: 2025-12-21T02:26:26.052Z)
Latitude
-0.00004°
Longitude
163.24988°
Altitude
672.34 km
Speed
7.51 km/s
True Right ascension
19h 19m 06s
True Declination
0° 00' 00"
Sunlit
Object was in daylight at epoch
Visualization orbit readout
Latitude
Unknown
Longitude
Unknown
Altitude
Unknown
Speed
Unknown
Apparent Right ascension
Unknown
Apparent Declination
Unknown
Sunlit
N/A
Visualization observer readout
Local Sidereal Time
10:39:23
Azimuth
Unknown
Elevation
Unknown
Doppler factor
Unknown
Orbital elements
Apogee altitude
773.103 km
Perigee altitude
520.94 km
Semi-major axis
7,025.159 km
Eccentricity
0.01795
Inclination
89.0007°
RAAN
289.7774°
Arg. of periapsis
99.8264°
True anomaly
260.29544°
Mean anomaly
262.3271°
Eccentric anomaly
261.31061°
Mean motion
3.68603 °/min
Orbital period
97.67 mins
BSTAR
0.00019563
Loading maneuver chart data...
Computing Atmospheric mass density...
Loading historical data...
Loading historical data...
Loading historical data...
Loading historical data...
Loading historical data...
Loading historical data...
Loading historical data...

Documentation

Showing up to 5 results
|